Spokane Fairchild, WA

2:00 AM PDT on May 28, 2017 (GMT -0700)
Fairchild Air Force Base

Weather History for KSKA - October, 2012

Change the Weather History Date:

Tuesday, October 30, 2012

  Actual Average Record
Temperature  
Mean Temperature 50 °F -  
Max Temperature 55 °F 45 °F 64 °F (1999)
Min Temperature 44 °F 29 °F 15 °F (2002)
Degree Days  
Heating Degree Days 16    
Moisture  
Dew Point 50 °F    
Average Humidity 100    
Maximum Humidity 100    
Minimum Humidity 94    
Precipitation  
Precipitation 0.16 in - - ()
Sea Level Pressure  
Sea Level Pressure 29.95 in    
Wind  
Wind Speed 7 mph (SSE)    
Max Wind Speed 13 mph    
Max Gust Speed -    
Visibility 10 miles    
Events Rain    
Averages and records for this station are not official NWS values.
T = Trace of Precipitation, MM = Missing Value Source: NWS Daily Summary

Daily Weather History Graph

Daily Weather History Graph

Search for Another Location

Airport or City:

Trip Planner

Search our weather history database for the weather conditions in past years. The results will help you decide how hot, cold, wet, or windy it might be!

Date:

Astronomy

Oct. 30, 2012 Rise Set
Actual Time 7:32 AM PDT 5:35 PM PDT
Civil Twilight 7:00 AM PDT 6:07 PM PDT
Nautical Twilight 6:24 AM PDT 6:43 PM PDT
Astronomical Twilight 5:48 AM PDT 7:19 PM PDT
Moon 6:01 PM PDT (10/30) 8:29 AM PDT (10/30)
Length of Visible Light 11h 06m
Length of Day
10h 02m
Full, 99% of the Moon is Illuminated
Oct 30
Full
Nov 6
Last Quarter
Nov 13
New
Nov 20
First Quarter
Nov 28
Full

Hourly Weather History & Observations

Time (PDT) Temp. Windchill Dew Point Humidity Pressure Visibility Wind Dir Wind Speed Gust Speed Precip Events Conditions
12:55 AM 45.1 °F 41.4 °F 45.1 °F 100% 30.03 in 10.0 mi South 6.9 mph - N/A   Clear
1:55 AM 45.1 °F 41.4 °F 45.1 °F 100% 30.03 in 10.0 mi South 6.9 mph - N/A   Clear
2:55 AM 44.6 °F 39.2 °F 44.6 °F 100% 30.03 in 10.0 mi South 10.4 mph - N/A   Clear
3:55 AM 45.5 °F 44.2 °F 45.5 °F 100% 30.02 in 10.0 mi SW 3.5 mph - N/A   Clear
4:55 AM 47.3 °F - 47.3 °F 100% 30.00 in 10.0 mi SSE 8.1 mph - N/A   Mostly Cloudy
4:56 AM 48.2 °F - 48.2 °F 100% 29.99 in 10.0 mi SSE 8.1 mph - N/A Rain Light Rain
5:55 AM 46.8 °F - 46.8 °F 100% 30.00 in 10.0 mi South 3.5 mph - 0.00 in Rain Light Rain
6:15 AM 46.4 °F - 46.4 °F 100% 30.00 in 10.0 mi Calm Calm - N/A   Overcast
6:24 AM 46.4 °F 44.3 °F 46.4 °F 100% 29.99 in 10.0 mi ESE 4.6 mph - N/A Rain Light Rain
6:55 AM 46.0 °F 44.8 °F 46.0 °F 100% 29.98 in 10.0 mi ESE 3.5 mph - 0.01 in Rain Light Rain
7:04 AM 46.4 °F 45.2 °F 46.4 °F 100% 29.98 in 10.0 mi ESE 3.5 mph - N/A   Mostly Cloudy
7:55 AM 47.5 °F - 47.5 °F 100% 29.96 in 10.0 mi SE 6.9 mph - 0.00 in   Overcast
8:55 AM 49.3 °F - 49.3 °F 100% 29.95 in 10.0 mi SSE 4.6 mph - N/A   Overcast
9:55 AM 50.7 °F - 50.7 °F 100% 29.95 in 10.0 mi SE 4.6 mph - N/A   Overcast
10:55 AM 52.3 °F - 52.3 °F 100% 29.94 in 9.0 mi SE 8.1 mph - N/A   Overcast
11:55 AM 54.7 °F - 54.7 °F 100% 29.94 in 10.0 mi South 8.1 mph - N/A   Overcast
12:44 PM 55.4 °F - 53.6 °F 94% 29.93 in 10.0 mi South 8.1 mph - N/A Rain Light Rain
12:55 PM 55.2 °F - 55.2 °F 100% 29.93 in 10.0 mi South 12.7 mph - 0.00 in Rain Light Rain
1:51 PM 53.6 °F - 53.6 °F 100% 29.92 in 10.0 mi South 9.2 mph - N/A   Overcast
1:53 PM 53.6 °F - 53.6 °F 100% 29.92 in 10.0 mi South 9.2 mph - N/A   Light Drizzle
1:55 PM 53.1 °F - 53.1 °F 100% 29.92 in 10.0 mi South 6.9 mph - 0.03 in Rain Light Rain
2:26 PM 53.6 °F - 53.6 °F 100% 29.93 in 10.0 mi South 8.1 mph - N/A   Overcast
2:30 PM 53.6 °F - 53.6 °F 100% 29.92 in 10.0 mi South 6.9 mph - N/A Rain Light Rain
2:55 PM 53.8 °F - 53.8 °F 100% 29.93 in 10.0 mi South 6.9 mph - 0.00 in Rain Light Rain
3:55 PM 54.0 °F - 54.0 °F 100% 29.93 in 10.0 mi South 9.2 mph - 0.02 in Rain Light Rain
4:55 PM 52.0 °F - 52.0 °F 100% 29.92 in 10.0 mi South 6.9 mph - 0.03 in Rain Light Rain
5:55 PM 51.1 °F - 51.1 °F 100% 29.92 in 10.0 mi South 6.9 mph - 0.03 in Rain Light Rain
6:55 PM 51.1 °F - 51.1 °F 100% 29.92 in 10.0 mi South 9.2 mph - 0.02 in Rain Light Rain
7:04 PM 51.8 °F - 51.8 °F 100% 29.92 in 10.0 mi South 9.2 mph - N/A Rain Light Rain
7:07 PM 51.8 °F - 51.8 °F 100% 29.92 in 10.0 mi South 9.2 mph - N/A Rain Light Rain
7:09 PM 51.8 °F - 51.8 °F 100% 29.92 in 10.0 mi South 10.4 mph - N/A Rain Light Rain
7:19 PM 51.8 °F - 51.8 °F 100% 29.92 in 10.0 mi South 9.2 mph - N/A Rain Light Rain
7:55 PM 51.3 °F - 51.3 °F 100% 29.91 in 10.0 mi South 9.2 mph - 0.02 in Rain Light Rain
8:03 PM 51.8 °F - 51.8 °F 100% 29.91 in 10.0 mi SSE 8.1 mph - N/A Rain Light Rain
8:55 PM 50.7 °F - 50.7 °F 100% 29.91 in 10.0 mi SSE 5.8 mph - 0.00 in   Light Drizzle
8:59 PM 50.0 °F - 50.0 °F 100% 29.91 in 10.0 mi SSE 5.8 mph - N/A   Overcast
9:55 PM 50.7 °F - 50.7 °F 100% 29.92 in 10.0 mi SSE 6.9 mph - 0.00 in   Scattered Clouds
10:55 PM 50.7 °F - 50.7 °F 100% 29.91 in 10.0 mi ESE 3.5 mph - N/A   Mostly Cloudy
11:55 PM 50.9 °F - 50.9 °F 100% 29.90 in 10.0 mi ESE 5.8 mph - N/A   Mostly Cloudy